User: anonymous   Login
Location: Unspecified
(0.0000°N, 0.0000°E)
Time: 20:45:26
(UTC+00:00)
Language:

NOSS 7 (A) - Orbit

View from above orbital plane
View from above orbital plane
View from above satellite
View from above satellite

Ground track
Ground track

The orbit data is extracted from the following two-line orbital elements,

1 16591U 86014A   21122.86607613 0.00004300  00000-0  26866-3 0    07
2 16591  63.2909  31.3167 0943368  75.8503 284.1497 13.52032801    05
Epoch (UTC): 02 May 2021 20:47:08
Eccentricity: 0.0943368
inclination: 63.2909°
perigee height: 362 km
apogee height: 1767 km
right ascension of ascending node: 31.3167°
argument of perigee: 75.8503°
revolutions per day: 13.52032801
mean anomaly at epoch: 284.1497°
orbit number at epoch: 0

The dashed part of the orbit path shows where the satellite is in the earth's shadow,  

DLR